Thursday, October 30, 2014
16:01 UTC
  |  Log In   |  Register Free
Airport Search:

Clinton-Sampson County Airport
(KCTZ)

Clinton-Sampson County Airport Diagram
No Airport Diagram Available

FAA data valid effective September 18, 2014 - November 13, 2014 (unless otherwise noted).

 
 
 
 
 
 
 
 
 
 
 
 
 
 

Current Aviation Weather for Clinton-Sampson County Airport (KCTZ)

The most recent METAR observation for KCTZ was updated at: 1513
METAR Summary (Translated METAR)
KCTZ
301455Z AUTO 02009KT 10SM CLR 18/10 A3004 RMK AO2 T01770102
KDPL
301455Z AUTO 02007KT 10SM CLR 17/09 A3004 RMK AO2 T01660089
(18.9 nm NE from KCTZ)
KEYF
301455Z AUTO 06004KT 10SM CLR 17/09 A3003 RMK AO2 T01710094
(24.8 nm SW from KCTZ)
TAF
No TAF information found within 50 nm of KCTZ
  Airport Weather Conditions for KCTZ

 Current Weather at CTZ
64° F
Fair
North winds at 10.4 mph
CTZ NOAA Radar

Pressure: 30.04 in
Humidity: 62%
Wind: North at 10.4 MPH (9 KT)
Dew Point: 50.4°F
Visibility: 10.00 mi


Airport Weather Forecast for KCTZ

Translated METAR and TAF for KCTZ
Translated METAR for KCTZ (1557 UTC 30 October 2014)
found at http://aviationweather.gov/adds/metars/
 
METAR text: KCTZ 301535Z AUTO 05006G16KT 10SM CLR 19/08 A3004 RMK AO2 T01850084
Conditions at: KCTZ (CLINTON , NC, US) observed 1535 UTC 30 October 2014
Temperature: 18.5°C (65°F)
Dewpoint: 8.4°C (47°F) [RH = 52%]
Pressure (altimeter): 30.04 inches Hg (1017.4 mb)
Winds: from the NE (50 degrees) at 7 MPH (6 knots; 3.1 m/s)
gusting to 18 MPH (16 knots; 8.3 m/s)
Visibility: 10 or more miles (16+ km)
Ceiling: at least 12,000 feet AGL
Clouds: sky clear below 12,000 feet AGL
Weather: automated observation with no human augmentation;
there may or may not be significant weather present at this time
Translated TAF for KCTZ

There is no translated TAF available for this airport

Find All Airport Services Find A Hotel Find A Rental Car Find A Golf Course Find A Restaurant $100 Hamburger



FBO's on the Field
FBO Company Facility Photos Services Transportation Aviation Fuel Prices: Prices include tax
Catering Weather Repair Courtesy Rental Type 100LL JetA JetA+ MOGAS 8087
 
Clinton Flying Service

This FBO has not yet been rated
FS:Shell
Last Updated: Oct-07
Login to update fuel prices
SS:
Contact Clinton Flying ServiceMore FBO Information
 
Add another FBO Facility Photos Catering Weather Repair Courtesy Rental Type 100LL JetA JetA+ MOGAS 8087
Services Transportation Aviation Fuel Prices: Prices include tax


model-print
model-print
model-print
model-print